Latest Weather Observations for Padthaway

IDS60801

Issued at 9:05 am CST Friday 22 August 2014 (issued every 30 minutes, with the page automatically refreshed every 10 minutes)

About weather observations | Map of weather stations | Latest weather observations for SA | Other Formats
Station Details ID: 026100 Name: PADTHAWAY SOUTH Lat: -36.65 Lon: 140.52 Height: 37.0 m
Data from the previous 72 hours. | See also: Recent months at Padthaway
Date/Time
CST
Temp
°C
App
Temp
°C
Dew
Point
Rel
Hum
%
Delta-T
°C
Wind Press
QNH
hPa
Press
MSL
hPa
Rain
since 9 am
mm
Dir
 
Spd
km/h
Gust
km/h
Spd
kts
Gust
kts
22/09:00am 12.0 6.8 5.4 64 3.1 NE 22 30 12 16 - - 0.0
22/08:30am 11.3 6.4 5.2 66 2.8 NNE 20 28 11 15 - - 0.0
22/08:00am 10.7 5.4 4.8 67 2.7 NNE 22 32 12 17 - - 0.0
22/07:30am 10.1 5.2 4.9 70 2.3 NNE 20 30 11 16 - - 0.0
22/07:00am 9.7 4.3 4.7 71 2.2 NNE 22 33 12 18 - - 0.0
22/06:30am 9.6 4.6 4.6 71 2.2 NE 20 28 11 15 - - 0.0
22/06:00am 9.7 4.3 4.7 71 2.2 NE 22 28 12 15 - - 0.0
22/05:30am 9.5 4.5 4.5 71 2.2 NE 20 26 11 14 - - 0.0
22/05:00am 9.4 3.9 4.2 70 2.3 NE 22 28 12 15 - - 0.0
22/04:30am 9.1 4.0 3.9 70 2.3 NE 20 26 11 14 - - 0.0
22/04:00am 8.9 3.8 3.9 71 2.2 NE 20 28 11 15 - - 0.0
22/03:30am 9.1 5.0 4.1 71 2.2 NE 15 20 8 11 - - 0.0
22/03:00am 9.3 5.5 4.1 70 2.3 NE 13 17 7 9 - - 0.0
22/02:30am 9.0 5.6 4.2 72 2.1 NE 11 15 6 8 - - 0.0
22/02:00am 9.2 5.1 4.2 71 2.2 NE 15 20 8 11 - - 0.0
22/01:30am 9.1 5.8 4.3 72 2.1 NE 11 15 6 8 - - 0.0
22/01:00am 8.6 5.3 4.4 75 1.8 NE 11 15 6 8 - - 0.0
22/12:30am 9.0 5.7 4.6 74 2.0 NE 11 15 6 8 - - 0.0
22/12:00am 8.1 4.7 4.1 76 1.7 ENE 11 13 6 7 - - 0.0
 
Date/Time
CST
Temp
°C
App
Temp
°C
Dew
Point
Rel
Hum
%
Delta-T
°C
Wind Press
QNH
hPa
Press
MSL
hPa
Rain
since 9 am
mm
Dir
 
Spd
km/h
Gust
km/h
Spd
kts
Gust
kts
21/11:30pm 8.4 5.1 4.4 76 1.8 ENE 11 15 6 8 - - 0.0
21/11:00pm 8.3 6.2 4.1 75 1.8 E 4 9 2 5 - - 0.0
21/10:30pm 7.0 5.3 4.0 81 1.3 E 2 7 1 4 - - 0.0
21/10:00pm 7.6 3.9 4.6 81 1.3 ENE 13 17 7 9 - - 0.0
21/09:30pm 5.3 2.5 3.2 86 0.9 E 7 11 4 6 - - 0.0
21/09:00pm 5.9 3.2 3.7 86 0.9 E 7 7 4 4 - - 0.0
21/08:30pm 6.0 3.5 3.8 86 0.9 E 6 7 3 4 - - 0.0
21/08:00pm 6.2 3.5 3.9 85 1.0 E 7 9 4 5 - - 0.0
21/07:30pm 6.9 4.3 4.0 82 1.2 E 7 9 4 5 - - 0.0
21/07:00pm 8.1 5.8 4.7 79 1.5 E 6 7 3 4 - - 0.0
21/06:30pm 9.2 6.9 5.0 75 1.9 SE 6 7 3 4 - - 0.0
21/06:00pm 11.0 8.8 5.5 69 2.5 SSE 6 7 3 4 - - 0.0
21/05:30pm 12.8 11.8 5.7 62 3.3 CALM 0 0 0 0 - - 0.0
21/05:00pm 14.1 13.3 6.7 61 3.6 CALM 0 0 0 0 - - 0.0
21/04:30pm 14.6 13.4 6.4 58 4.0 W 2 7 1 4 - - 0.0
21/04:00pm 14.0 11.2 5.1 55 4.2 W 9 11 5 6 - - 0.0
21/03:30pm 15.2 12.5 5.4 52 4.7 NW 9 13 5 7 - - 0.0
21/03:00pm 15.1 12.5 5.9 54 4.4 W 9 17 5 9 - - 0.0
21/02:30pm 14.6 11.3 4.3 50 4.8 W 11 15 6 8 - - 0.0
21/02:00pm 14.1 12.5 4.7 53 4.4 WSW 2 7 1 4 - - 0.0
21/01:30pm 14.7 12.4 5.0 52 4.6 WNW 6 13 3 7 - - 0.0
21/01:00pm 13.9 11.2 3.9 51 4.6 N 7 13 4 7 - - 0.0
21/12:30pm 13.1 10.2 4.5 56 3.9 NE 9 17 5 9 - - 0.0
21/12:00pm 13.6 11.2 4.2 53 4.3 ENE 6 17 3 9 - - 0.0
21/11:30am 12.3 8.8 3.3 54 4.0 NE 11 20 6 11 - - 0.0
21/11:00am 12.9 9.6 4.8 58 3.7 NNE 11 17 6 9 - - 0.0
21/10:30am 12.3 9.2 3.5 55 3.9 NNE 9 15 5 8 - - 0.0
21/10:00am 11.8 8.3 3.3 56 3.8 NE 11 17 6 9 - - 0.0
21/09:30am 11.7 9.1 4.2 60 3.4 ENE 7 11 4 6 - - 0.0
21/09:00am 9.6 8.5 5.0 73 2.1 CALM 0 6 0 3 - - 0.0
21/08:30am 7.7 6.5 4.8 82 1.3 CALM 0 0 0 0 - - 0.0
21/08:00am 5.7 4.4 4.3 91 0.6 CALM 0 0 0 0 - - 0.0
21/07:30am 4.3 2.9 3.4 94 0.4 CALM 0 4 0 2 - - 0.0
21/07:00am 3.7 2.2 2.8 94 0.4 CALM 0 0 0 0 - - 0.0
21/06:30am 2.8 1.1 1.8 93 0.4 CALM 0 0 0 0 - - 0.0
21/06:00am 2.4 0.6 1.4 93 0.4 CALM 0 0 0 0 - - 0.0
21/05:30am 2.3 0.5 1.1 92 0.5 CALM 0 0 0 0 - - 0.0
21/05:00am 2.3 0.5 1.1 92 0.5 CALM 0 0 0 0 - - 0.0
21/04:30am 3.0 0.2 2.0 93 0.4 SSE 6 7 3 4 - - 0.0
21/04:00am 2.7 -0.2 1.7 93 0.4 SSE 6 9 3 5 - - 0.0
21/03:30am 1.7 -0.2 0.5 92 0.4 CALM 0 0 0 0 - - 0.0
21/03:00am 1.0 -1.1 -0.5 90 0.5 CALM 0 0 0 0 - - 0.0
21/02:30am 1.6 -1.7 0.1 90 0.6 SE 7 7 4 4 - - 0.0
21/02:00am 2.2 -1.0 0.6 89 0.6 SE 7 9 4 5 - - 0.0
21/01:30am 2.8 -0.7 1.0 88 0.7 SE 9 11 5 6 - - 0.0
21/01:00am 3.2 -0.3 1.3 87 0.7 SSE 9 11 5 6 - - 0.0
21/12:30am 4.1 0.3 1.8 85 0.9 SE 11 11 6 6 - - 0.0
21/12:00am 4.4 1.4 2.3 86 0.8 SE 7 9 4 5 - - 0.0
 
Date/Time
CST
Temp
°C
App
Temp
°C
Dew
Point
Rel
Hum
%
Delta-T
°C
Wind Press
QNH
hPa
Press
MSL
hPa
Rain
since 9 am
mm
Dir
 
Spd
km/h
Gust
km/h
Spd
kts
Gust
kts
20/11:30pm 4.5 1.8 2.4 86 0.8 SSE 6 9 3 5 - - 0.0
20/11:00pm 4.1 2.4 2.0 86 0.8 CALM 0 0 0 0 - - 0.0
20/10:30pm 4.2 2.2 2.1 86 0.8 S 2 7 1 4 - - 0.0
20/10:00pm 4.6 2.9 2.0 83 1.0 CALM 0 0 0 0 - - 0.0
20/09:30pm 5.9 4.4 2.9 81 1.2 CALM 0 0 0 0 - - 0.0
20/09:00pm 6.8 4.0 3.1 77 1.6 E 7 9 4 5 - - 0.0
20/08:30pm 8.1 5.3 3.4 72 2.0 E 7 9 4 5 - - 0.0
20/08:00pm 9.0 5.9 3.8 70 2.3 ESE 9 11 5 6 - - 0.0
20/07:30pm 9.4 6.5 4.4 71 2.2 ESE 9 15 5 8 - - 0.0
20/07:00pm 9.8 7.3 4.8 71 2.2 SSE 7 11 4 6 - - 0.0
20/06:30pm 10.4 7.6 5.0 69 2.4 SE 9 11 5 6 - - 0.0
20/06:00pm 10.9 7.6 4.8 66 2.8 SE 11 13 6 7 - - 0.0
20/05:30pm 11.3 8.5 5.2 66 2.8 SSE 9 13 5 7 - - 0.0
20/05:00pm 11.7 8.8 4.9 63 3.1 SSE 9 13 5 7 - - 0.0
20/04:30pm 12.2 8.5 4.2 58 3.6 SSE 13 19 7 10 - - 0.0
20/04:00pm 12.2 8.2 4.9 61 3.4 S 15 19 8 10 - - 0.0
20/03:30pm 12.4 8.8 4.9 60 3.4 S 13 19 7 10 - - 0.0
20/03:00pm 12.3 7.9 5.0 61 3.4 S 17 20 9 11 - - 0.0
20/02:30pm 12.4 8.7 4.6 59 3.6 SSE 13 20 7 11 - - 0.0
20/02:00pm 12.6 8.6 3.0 52 4.2 S 13 19 7 10 - - 0.0
20/01:30pm 12.5 9.1 4.0 56 3.8 SSE 11 15 6 8 - - 0.0
20/01:00pm 12.2 8.5 4.4 59 3.5 SSE 13 19 7 10 - - 0.0
20/12:30pm 12.2 8.4 3.9 57 3.7 S 13 17 7 9 - - 0.0
20/12:00pm 12.0 7.9 4.5 60 3.4 S 15 20 8 11 - - 0.0
20/11:30am 11.9 9.0 4.6 61 3.3 S 9 17 5 9 - - 0.0
20/11:00am 12.0 8.6 4.0 58 3.6 SE 11 15 6 8 - - 0.0
20/10:30am 11.7 8.4 4.4 61 3.3 SSE 11 17 6 9 - - 0.0
20/10:00am 11.6 9.1 5.0 64 3.0 SE 7 11 4 6 - - 0.0
20/09:30am 11.0 9.6 5.5 69 2.5 S 2 6 1 3 - - 0.0
20/09:00am 10.0 8.7 6.0 76 1.8 ENE 2 7 1 4 - - 0.0
20/08:30am 9.0 8.3 6.8 86 1.0 CALM 0 0 0 0 - - 0.0
20/08:00am 8.3 7.6 6.8 90 0.7 CALM 0 0 0 0 - - 0.0
20/07:30am 7.8 7.0 6.3 90 0.7 CALM 0 0 0 0 - - 0.0
20/07:00am 7.4 5.1 5.7 89 0.8 SSE 7 9 4 5 - - 0.0
20/06:30am 7.6 5.4 6.1 90 0.7 SSE 7 11 4 6 - - 0.0
20/06:00am 7.7 5.5 6.0 89 0.8 SSE 7 9 4 5 - - 0.0
20/05:30am 7.7 5.6 6.0 89 0.8 S 6 9 3 5 - - 0.0
20/05:00am 7.8 6.1 6.1 89 0.8 SSE 4 11 2 6 - - 0.0
20/04:30am 7.9 5.7 6.0 88 0.9 SSE 7 11 4 6 - - 0.0
20/04:00am 7.9 5.3 6.0 88 0.9 SSE 9 13 5 7 - - 0.0
20/03:30am 7.4 6.6 6.3 93 0.5 CALM 0 0 0 0 - - 0.0
20/03:00am 7.4 5.4 6.3 93 0.5 S 6 7 3 4 - - 0.0
20/02:30am 7.4 6.2 6.3 93 0.5 SSE 2 7 1 4 - - 0.0
20/02:00am 7.4 6.6 6.3 93 0.5 CALM 0 2 0 1 - - 0.0
20/01:30am 7.4 5.5 6.5 94 0.4 SSE 6 9 3 5 - - 0.0
20/01:00am 7.1 4.9 6.2 94 0.4 SSE 7 9 4 5 - - 0.0
20/12:30am 6.7 4.0 5.8 94 0.4 SE 9 9 5 5 - - 0.0
20/12:00am 5.7 2.8 4.7 93 0.4 SSE 9 11 5 6 - - 0.0
 
Date/Time
CST
Temp
°C
App
Temp
°C
Dew
Point
Rel
Hum
%
Delta-T
°C
Wind Press
QNH
hPa
Press
MSL
hPa
Rain
since 9 am
mm
Dir
 
Spd
km/h
Gust
km/h
Spd
kts
Gust
kts
19/11:30pm 5.2 2.1 3.5 89 0.7 SSE 9 11 5 6 - - 0.0
19/11:00pm 6.7 3.8 4.5 86 1.0 SSE 9 11 5 6 - - 0.0
19/10:30pm 7.7 4.8 4.8 82 1.3 SSE 9 11 5 6 - - 0.0
19/10:00pm 9.1 6.4 5.5 78 1.6 SSE 9 11 5 6 - - 0.0
19/09:30pm 9.1 6.4 5.7 79 1.5 SSE 9 11 5 6 - - 0.0
19/09:00pm 8.8 6.8 6.1 83 1.2 S 6 7 3 4 - - 0.0
19/08:30pm 8.9 7.5 5.6 80 1.5 ESE 2 6 1 3 - - 0.0
19/08:00pm 9.3 7.9 5.7 78 1.6 S 2 7 1 4 - - 0.0
19/07:30pm 9.9 8.6 5.9 76 1.8 SSE 2 17 1 9 - - 0.0
19/07:00pm 9.9 8.9 5.7 75 1.9 CALM 0 0 0 0 - - 0.0
19/06:30pm 10.3 8.1 5.5 72 2.2 S 6 9 3 5 - - 0.0
19/06:00pm 10.4 7.7 5.6 72 2.2 S 9 11 5 6 - - 0.0
19/05:30pm 10.7 7.6 5.7 71 2.3 S 11 17 6 9 - - 0.0
19/05:00pm 11.0 7.6 5.7 70 2.5 SSE 13 19 7 10 - - 0.0
19/04:30pm 11.2 7.8 6.1 71 2.4 SSE 13 19 7 10 - - 0.0
19/04:00pm 11.5 6.9 5.8 68 2.7 S 19 26 10 14 - - 0.0
19/03:30pm 11.9 7.7 5.8 66 2.8 S 17 22 9 12 - - 0.0
19/03:00pm 11.9 8.3 4.9 62 3.2 S 13 20 7 11 - - 0.0
19/02:30pm 12.0 7.4 5.6 65 3.0 S 19 24 10 13 - - 0.0
19/02:00pm 12.6 8.2 4.6 58 3.7 S 17 24 9 13 - - 0.0
19/01:30pm 12.7 8.3 4.9 59 3.6 S 17 24 9 13 - - 0.0
19/01:00pm 13.3 9.2 6.2 62 3.4 S 17 24 9 13 - - 0.0
19/12:30pm 12.8 8.3 5.9 63 3.3 SSE 19 24 10 13 - - 0.0
19/12:00pm 12.1 8.6 7.2 72 2.4 SSE 15 22 8 12 - - 0.0
19/11:30am 11.5 7.1 6.6 72 2.3 S 19 24 10 13 - - 0.0
19/11:00am 11.1 7.1 6.8 75 2.0 S 17 20 9 11 - - 0.0
19/10:30am 10.0 7.7 7.3 83 1.3 S 9 15 5 8 - - 0.0
19/10:00am 8.4 6.4 7.2 92 0.6 SSE 7 9 4 5 - - 0.0
19/09:30am 6.8 5.6 6.4 97 0.2 S 2 9 1 5 - - 0.0

Other Formats:

Comma delimited format used in spreadsheet applications
http://www.bom.gov.au/fwo/IDS60801/IDS60801.95823.axf

JavaScript Object Notation format (JSON) in row-major order
http://www.bom.gov.au/fwo/IDS60801/IDS60801.95823.json